DW9069 Weather Reports


time (UTC)temp
F
wind
direction
speed
knots
gust
knots
rain 1hr
in
rain 24hr
in
rain mn
in
humidity
%
barometer
mb
20210518204052 74 227 18.2 24.3 0.00 0.00 0.00 34 1004.3
20210518203547 74 248 15.6 24.3 0.00 0.00 0.00 32 1004.3
20210518203118 74 257 13.9 24.3 0.00 0.00 0.00 33 1004.3
20210518202622 74 228 16.5 24.3 0.00 0.00 0.00 33 1004.5
20210518202042 73 207 14.8 23.5 0.00 0.00 0.00 35 1004.5
20210518201600 73 232 13.9 20.9 0.00 0.00 0.00 38 1004.5
20210518201043 73 175 13.9 22.6 0.00 0.00 0.00 39 1004.5
20210518200541 73 180 16.5 25.2 0.00 0.00 0.00 36 1004.6
20210518200132 74 189 13.0 23.5 0.00 0.00 0.00 40 1004.6
20210518195542 73 213 14.8 23.5 0.00 0.00 0.00 40 1004.6
20210518195040 73 188 10.4 19.1 0.00 0.00 0.00 41 1004.7
20210518194624 73 206 13.0 21.7 0.00 0.00 0.00 41 1004.9
20210518194040 72 211 11.3 19.1 0.00 0.00 0.00 43 1004.9
20210518193558 72 209 11.3 21.7 0.00 0.00 0.00 45 1005.2
20210518193112 72 200 12.2 20.0 0.00 0.00 0.00 46 1005.2
20210518192601 72 205 12.2 20.0 0.00 0.00 0.00 44 1005.2
20210518192034 71 188 8.7 16.5 0.00 0.00 0.00 47 1005.4
20210518191603 70 212 11.3 17.4 0.00 0.00 0.00 46 1005.6
20210518191032 71 208 10.4 18.2 0.00 0.00 0.00 49 1005.7
20210518190529 70 196 11.3 18.2 0.00 0.00 0.00 46 1005.7
20210518190043 70 194 11.3 19.1 0.00 0.00 0.00 49 1006.0
20210518185526 69 200 12.2 20.9 0.00 0.00 0.00 49 1006.0
20210518185031 69 183 11.3 19.1 0.00 0.00 0.00 50 1006.1
20210518184533 69 184 12.2 19.1 0.00 0.00 0.00 51 1006.3
20210518184024 69 200 10.4 16.5 0.00 0.00 0.00 49 1006.4
20210518183531 69 194 11.3 19.1 0.00 0.00 0.00 50 1006.4
20210518183124 68 203 13.9 19.1 0.00 0.00 0.00 51 1006.5
20210518182527 68 219 13.0 20.0 0.00 0.00 0.00 52 1006.6
20210518182025 67 163 14.8 20.0 0.00 0.00 0.00 52 1006.6
20210518181627 67 226 14.8 20.9 0.00 0.00 0.00 52 1006.6
20210518181025 67 208 13.9 20.0 0.00 0.00 0.00 51 1006.7
20210518180529 67 242 15.6 23.5 0.00 0.00 0.00 51 1006.8
20210518180026 67 257 13.0 23.5 0.00 0.00 0.00 52 1006.9
20210518175519 67 223 11.3 22.6 0.00 0.00 0.00 51 1006.9
20210518175037 67 207 13.0 22.6 0.00 0.00 0.00 55 1007.0
20210518174523 66 211 11.3 21.7 0.00 0.00 0.00 51 1007.0
20210518174018 66 220 13.9 20.0 0.00 0.00 0.00 53 1007.1
20210518173518 66 189 13.9 20.0 0.00 0.00 0.00 52 1007.2
20210518173033 66 200 15.6 19.1 0.00 0.00 0.00 49 1007.2
20210518172527 66 217 12.2 19.1 0.00 0.00 0.00 52 1007.2
20210518172018 66 217 11.3 21.7 0.00 0.00 0.00 55 1007.0
20210518171550 65 181 11.3 21.7 0.00 0.00 0.00 54 1007.2
20210518171014 65 212 15.6 24.3 0.00 0.00 0.00 52 1007.1
20210518170526 65 230 16.5 24.3 0.00 0.00 0.00 50 1007.2
20210518170034 65 209 13.0 22.6 0.00 0.00 0.00 52 1007.2
20210518165514 65 221 15.6 22.6 0.00 0.00 0.00 51 1007.1
20210518165016 65 171 13.9 20.0 0.00 0.00 0.00 51 1007.1
20210518164517 66 190 9.6 18.2 0.00 0.00 0.00 54 1007.1
20210518164012 65 207 12.2 21.7 0.00 0.00 0.00 54 1007.2
20210518163517 64 200 13.9 21.7 0.00 0.00 0.00 51 1007.3
20210518163031 64 215 13.9 21.7 0.00 0.00 0.00 51 1007.3
20210518162520 65 189 13.9 19.1 0.00 0.00 0.00 52 1007.3
20210518162017 64 219 12.2 20.0 0.00 0.00 0.00 51 1007.3
20210518161515 64 213 12.2 18.2 0.00 0.00 0.00 51 1007.3
20210518161011 64 196 10.4 18.2 0.00 0.00 0.00 52 1007.4
20210518160515 64 227 13.0 19.1 0.00 0.00 0.00 52 1007.4
20210518160014 64 220 14.8 19.1 0.00 0.00 0.00 52 1007.4
20210518155511 64 229 11.3 20.0 0.00 0.00 0.00 53 1007.3
20210518155011 64 218 10.4 16.5 0.00 0.00 0.00 55 1007.3
20210518154530 63 208 10.4 17.4 0.00 0.00 0.00 54 1007.5
20210518154006 63 204 9.6 16.5 0.00 0.00 0.00 58 1007.4
20210518153508 63 217 12.2 16.5 0.00 0.00 0.00 55 1007.5
20210518153009 63 216 9.6 14.8 0.00 0.00 0.00 59 1007.5
20210518152508 62 214 10.4 13.9 0.00 0.00 0.00 59 1007.6
20210518152003 62 215 8.7 14.8 0.00 0.00 0.00 60 1007.6
20210518151508 62 197 8.7 14.8 0.00 0.00 0.00 61 1007.5
20210518151003 62 192 7.8 13.9 0.00 0.00 0.00 60 1007.6
20210518150502 62 202 7.8 13.9 0.00 0.00 0.00 63 1007.6
20210518150004 62 211 6.1 11.3 0.00 0.00 0.00 64 1007.6
20210518145600 61 188 3.5 7.8 0.00 0.00 0.00 64 1007.6
20210518145143 61 199 4.3 7.8 0.00 0.00 0.00 64 1007.7
20210518144746 60 197 2.6 6.1 0.00 0.00 0.00 63 1007.6
20210518144058 60 193 3.5 6.1 0.00 0.00 0.00 63 1007.6
20210518143610 59 175 1.7 4.3 0.00 0.00 0.00 64 1007.6
20210518143153 58 146 0.9 6.1 0.00 0.00 0.00 66 1007.5
20210518142554 58 146 1.7 6.1 0.00 0.00 0.00 66 1007.6
20210518142052 58 163 1.7 3.5 0.00 0.00 0.00 65 1007.5
20210518141608 57 173 0.9 4.3 0.00 0.00 0.00 68 1007.5
20210518141050 57 168 2.6 4.3 0.00 0.00 0.00 68 1007.4
20210518140550 56 138 1.7 3.5 0.00 0.00 0.00 67 1007.5
20210518140149 56 133 0.0 2.6 0.00 0.00 0.00 70 1007.3
20210518135553 55 133 0.9 2.6 0.00 0.00 0.00 70 1007.3
20210518135053 55 133 0.9 2.6 0.00 0.00 0.00 68 1007.3
20210518134600 55 133 0.0 2.6 0.00 0.00 0.00 71 1007.3
20210518134051 54 133 0.9 2.6 0.00 0.00 0.00 71 1007.5
20210518133544 54 133 0.0 2.6 0.00 0.00 0.00 74 1007.4
20210518133105 53 133 0.9 2.6 0.00 0.00 0.00 73 1007.3
20210518132543 52 133 0.9 2.6 0.00 0.00 0.00 75 1007.3
20210518132057 51 133 0.9 2.6 0.00 0.00 0.00 77 1007.3
20210518131632 49 133 0.9 3.5 0.00 0.00 0.00 84 1007.2
20210518131041 48 133 1.7 3.5 0.00 0.00 0.00 84 1007.2
20210518130543 47 133 1.7 3.5 0.00 0.00 0.00 83 1007.1
20210518130320 47 133 1.7 2.6 0.00 0.00 0.00 82 1007.0
20210518125539 47 133 0.0 0.9 0.00 0.00 0.00 80 1006.9
20210518125044 47 133 0.0 1.7 0.00 0.00 0.00 80 1006.9
20210518124602 47 133 0.9 3.5 0.00 0.00 0.00 82 1006.9
20210518124039 46 133 0.9 3.5 0.00 0.00 0.00 82 1006.9
20210518123538 46 133 0.9 2.6 0.00 0.00 0.00 81 1006.8
20210518123045 47 133 0.9 2.6 0.00 0.00 0.00 79 1006.7
20210518122541 47 133 0.9 2.6 0.00 0.00 0.00 77 1006.6
20210518122037 47 133 0.0 2.6 0.00 0.00 0.00 79 1006.5
20210518121603 46 133 0.9 1.7 0.00 0.00 0.00 80 1006.4
20210518121036 46 133 0.0 1.7 0.00 0.00 0.00 79 1006.5
20210518120536 46 133 0.9 1.7 0.00 0.00 0.00 78 1006.5
20210518120040 47 133 0.9 3.5 0.00 0.00 0.00 77 1006.4
20210518115542 48 133 1.7 3.5 0.00 0.00 0.00 77 1006.4
20210518115035 47 135 2.6 3.5 0.00 0.00 0.00 78 1006.5
20210518114708 48 159 1.7 3.5 0.00 0.00 0.00 74 1006.4
20210518114036 49 173 0.0 4.3 0.00 0.00 0.00 75 1006.4
20210518113541 48 178 1.7 4.3 0.00 0.00 0.00 78 1006.5
20210518113052 46 355 0.9 2.6 0.00 0.00 0.00 80 1006.5
20210518112537 47 355 0.9 2.6 0.00 0.00 0.00 80 1006.6
20210518112034 46 355 0.9 2.6 0.00 0.00 0.00 80 1006.7
20210518111613 46 355 0.0 2.6 0.00 0.00 0.00 81 1006.7
20210518111036 46 355 0.9 2.6 0.00 0.00 0.00 79 1006.6
20210518110535 47 355 0.0 0.9 0.00 0.00 0.00 77 1006.5
20210518110102 47 355 0.0 0.0 0.00 0.00 0.00 78 1006.5
20210518105531 47 355 0.0 1.7 0.00 0.00 0.00 79 1006.6
20210518105031 47 355 0.9 3.5 0.00 0.00 0.00 80 1006.5
20210518104621 46 355 0.9 3.5 0.00 0.00 0.00 80 1006.5
20210518104028 46 355 1.7 2.6 0.00 0.00 0.00 80 1006.4
20210518103539 45 355 0.0 3.5 0.00 0.00 0.00 80 1006.4
20210518103050 46 355 1.7 3.5 0.00 0.00 0.00 78 1006.4
20210518102525 47 12 0.0 0.0 0.00 0.00 0.00 77 1006.3
20210518102025 47 12 0.0 3.5 0.00 0.00 0.00 79 1006.2
20210518101549 47 12 0.9 3.5 0.00 0.00 0.00 76 1006.3
20210518101023 48 36 0.0 2.6 0.00 0.00 0.00 77 1006.2
20210518100538 47 36 0.9 4.3 0.00 0.00 0.00 77 1006.2
20210518100134 47 36 2.6 4.3 0.00 0.00 0.00 78 1006.1
20210518095532 47 115 0.9 2.6 0.00 0.00 0.00 76 1006.0
20210518095021 48 115 0.0 2.6 0.00 0.00 0.00 74 1005.9
20210518094521 49 115 1.7 3.5 0.00 0.00 0.00 72 1006.0
20210518094029 49 115 1.7 3.5 0.00 0.00 0.00 74 1005.9
20210518093520 48 115 1.7 3.5 0.00 0.00 0.00 75 1005.9
20210518093101 49 115 0.0 1.7 0.00 0.00 0.00 74 1005.9
20210518092519 48 115 0.0 2.6 0.00 0.00 0.00 76 1005.8
20210518092033 48 115 1.7 2.6 0.00 0.00 0.00 77 1005.9
20210518091540 47 115 0.0 1.7 0.00 0.00 0.00 77 1005.8
20210518091018 48 115 0.0 2.6 0.00 0.00 0.00 76 1005.8
20210518090522 48 115 0.9 2.6 0.00 0.00 0.00 77 1005.9
20210518090036 49 115 0.9 2.6 0.00 0.00 0.00 75 1005.9
20210518085517 48 115 0.9 3.5 0.00 0.00 0.00 77 1005.8
20210518085016 48 115 1.7 3.5 0.00 0.00 0.00 76 1005.9
20210518084518 51 186 0.9 3.5 0.00 0.00 0.00 70 1006.0
20210518084014 52 186 0.9 3.5 0.00 0.00 0.00 69 1006.0
20210518083520 52 187 1.7 4.3 0.00 0.00 0.00 69 1006.1
20210518083023 52 199 0.9 3.5 0.00 0.00 0.00 69 1006.0
20210518082513 52 199 1.7 4.3 0.00 0.00 0.00 70 1006.1
20210518082017 52 199 2.6 4.3 0.00 0.00 0.00 70 1006.1
20210518081515 51 199 0.9 2.6 0.00 0.00 0.00 73 1006.0
20210518081011 49 199 0.9 1.7 0.00 0.00 0.00 76 1006.0
20210518080512 49 199 0.0 0.9 0.00 0.00 0.00 75 1006.1
20210518080013 49 199 0.0 0.9 0.00 0.00 0.00 74 1006.1
20210518075510 50 199 0.0 1.7 0.00 0.00 0.00 71 1006.0
20210518075019 50 199 0.0 1.7 0.00 0.00 0.00 71 1006.0
20210518074535 51 199 0.0 1.7 0.00 0.00 0.00 71 1005.9
20210518074008 51 199 0.0 0.0 0.00 0.00 0.00 69 1005.9
20210518073508 51 199 0.0 1.7 0.00 0.00 0.00 70 1005.9
20210518073016 51 199 0.0 1.7 0.00 0.00 0.00 70 1006.0
20210518072507 52 199 0.9 1.7 0.00 0.00 0.00 68 1006.0
20210518072011 52 199 0.9 1.7 0.00 0.00 0.00 67 1006.2
20210518071507 52 199 0.9 2.6 0.00 0.00 0.00 69 1006.1
20210518071011 50 199 0.9 3.5 0.00 0.00 0.00 74 1006.1
20210518070505 50 199 1.7 3.5 0.00 0.00 0.00 75 1006.2
20210518070008 50 199 1.7 2.6 0.00 0.00 0.00 73 1006.2
20210518065515 52 199 0.9 2.6 0.00 0.00 0.00 71 1006.1
20210518065006 51 199 0.9 1.7 0.00 0.00 0.00 69 1006.1
20210518064502 51 199 0.0 0.9 0.00 0.00 0.00 67 1006.0
20210518064002 52 199 0.0 1.7 0.00 0.00 0.00 65 1006.0
20210518063501 54 199 0.0 1.7 0.00 0.00 0.00 62 1006.1
20210518062600 53 199 0.0 1.7 0.00 0.00 0.00 64 1006.0
20210518062059 53 199 0.0 0.0 0.00 0.00 0.00 64 1006.1
20210518061751 52 199 0.0 1.7 0.00 0.00 0.00 66 1006.0
20210518061059 52 199 0.0 1.7 0.00 0.00 0.00 69 1006.1
20210518060559 52 199 0.0 1.7 0.00 0.00 0.00 68 1006.0
20210518060120 53 199 0.0 2.6 0.00 0.00 0.00 66 1006.0
20210518055557 54 199 0.0 2.6 0.00 0.00 0.00 64 1006.0
20210518055104 53 199 1.7 2.6 0.00 0.00 0.00 65 1005.9
20210518054609 54 199 0.9 2.6 0.00 0.00 0.00 64 1005.9
20210518054058 54 199 1.7 2.6 0.00 0.00 0.00 63 1005.9
20210518053604 54 199 1.7 3.5 0.00 0.00 0.00 62 1005.9
20210518053106 54 199 1.7 3.5 0.00 0.00 0.00 63 1005.8
20210518052557 55 199 1.7 4.3 0.00 0.00 0.00 61 1005.8
20210518052137 56 199 2.6 4.3 0.00 0.00 0.00 58 1005.7
20210518051639 57 199 2.6 5.2 0.00 0.00 0.00 56 1005.7
20210518051103 57 199 2.6 5.2 0.00 0.00 0.00 56 1005.7
20210518050611 57 199 2.6 4.3 0.00 0.00 0.00 56 1005.7
20210518050131 58 202 3.5 5.2 0.00 0.00 0.00 55 1005.7
20210518045553 58 203 3.5 7.0 0.00 0.00 0.00 54 1005.6
20210518045132 59 198 3.5 7.8 0.00 0.00 0.00 53 1005.6
20210518044634 60 205 3.5 7.8 0.00 0.00 0.00 50 1005.6
20210518044052 61 178 4.3 7.8 0.00 0.00 0.00 49 1005.6
20210518043617 61 194 4.3 8.7 0.00 0.00 0.00 49 1005.6
20210518043137 61 195 4.3 8.7 0.00 0.00 0.00 48 1005.5
20210518042552 61 173 3.5 6.1 0.00 0.00 0.00 49 1005.4
20210518042113 62 184 3.5 6.1 0.00 0.00 0.00 48 1005.3
20210518041644 62 166 3.5 6.1 0.00 0.00 0.00 47 1005.3
20210518041131 63 181 3.5 6.1 0.00 0.00 0.00 45 1005.3
20210518040552 63 185 3.5 7.0 0.00 0.00 0.00 46 1005.2
20210518040152 63 164 3.5 7.0 0.00 0.00 0.00 46 1005.2
20210518035553 63 187 3.5 7.0 0.00 0.00 0.00 47 1005.2
20210518035051 63 175 4.3 7.0 0.00 0.00 0.00 46 1005.2
20210518034600 64 198 4.3 7.8 0.00 0.00 0.00 44 1005.1
20210518034051 64 192 5.2 9.6 0.00 0.00 0.00 44 1005.0
20210518033553 64 211 4.3 9.6 0.00 0.00 0.00 45 1004.9
20210518033222 65 188 4.3 7.8 0.00 0.00 0.00 45 1004.9
20210518032600 65 190 4.3 7.8 0.00 0.00 0.00 46 1004.8
20210518032106 65 180 4.3 7.8 0.00 0.00 0.00 45 1004.7
20210518031614 65 188 4.3 8.7 0.00 0.00 0.00 45 1004.7
20210518031049 65 207 5.2 8.7 0.00 0.00 0.00 45 1004.7
20210518030549 66 187 4.3 8.7 0.00 0.00 0.00 45 1004.6
20210518030117 66 192 4.3 8.7 0.00 0.00 0.00 45 1004.6
20210518025549 66 192 5.2 8.7 0.00 0.00 0.00 45 1004.6
20210518025049 66 203 5.2 7.8 0.00 0.00 0.00 46 1004.5
20210518024609 67 203 4.3 7.8 0.00 0.00 0.00 47 1004.5
20210518024048 67 190 4.3 8.7 0.00 0.00 0.00 47 1004.6
20210518023555 68 190 7.0 11.3 0.00 0.00 0.00 45 1004.5
20210518023109 68 213 6.1 11.3 0.00 0.00 0.00 46 1004.5
20210518022605 68 190 6.1 10.4 0.00 0.00 0.00 45 1004.5
20210518022058 68 167 5.2 8.7 0.00 0.00 0.00 46 1004.4
20210518021611 69 202 4.3 10.4 0.00 0.00 0.00 45 1004.4
20210518021106 70 202 4.3 10.4 0.00 0.00 0.00 44 1004.3
20210518020546 70 189 4.3 7.8 0.00 0.00 0.00 43 1004.3
20210518020201 70 197 5.2 7.8 0.00 0.00 0.00 43 1004.2
20210518015546 70 178 4.3 10.4 0.00 0.00 0.00 44 1004.2
20210518015045 70 184 5.2 10.4 0.00 0.00 0.00 44 1004.2
20210518014724 70 181 5.2 10.4 0.00 0.00 0.00 43 1004.2
20210518014044 69 198 4.3 9.6 0.00 0.00 0.00 45 1004.2
20210518013543 70 221 5.2 9.6 0.00 0.00 0.00 45 1004.1
20210518013155 71 188 6.1 9.6 0.00 0.00 0.00 42 1004.1
20210518012544 70 198 7.0 9.6 0.00 0.00 0.00 43 1004.2
20210518012044 70 187 5.2 9.6 0.00 0.00 0.00 43 1004.1
20210518011600 70 193 4.3 8.7 0.00 0.00 0.00 46 1004.1
20210518011048 70 172 5.2 10.4 0.00 0.00 0.00 47 1004.1
20210518010543 70 192 5.2 8.7 0.00 0.00 0.00 43 1004.1
20210518010150 70 191 6.1 8.7 0.00 0.00 0.00 42 1004.1
20210518005545 71 191 2.6 7.0 0.00 0.00 0.00 44 1004.1
20210518005058 72 171 3.5 8.7 0.00 0.00 0.00 41 1004.1
20210518004604 72 196 4.3 8.7 0.00 0.00 0.00 41 1004.1
20210518004041 71 159 3.5 7.8 0.00 0.00 0.00 44 1004.2
20210518003544 70 168 4.3 10.4 0.00 0.00 0.00 42 1004.2
20210518003116 71 183 6.1 12.2 0.00 0.00 0.00 43 1004.2
20210518002547 72 206 7.8 12.2 0.00 0.00 0.00 43 1004.1
20210518002040 73 180 5.2 10.4 0.00 0.00 0.00 43 1004.2
20210518001625 73 213 5.2 7.8 0.00 0.00 0.00 45 1004.2
20210518001115 73 208 5.2 7.8 0.00 0.00 0.00 45 1004.2
20210518000540 73 212 3.5 8.7 0.00 0.00 0.00 45 1004.1
20210518000103 73 232 4.3 8.7 0.00 0.00 0.00 39 1004.2
20210517235539 74 192 3.5 8.7 0.00 0.00 0.00 40 1004.1
20210517235039 74 213 3.5 6.1 0.00 0.00 0.00 39 1004.2
20210517234707 74 205 3.5 6.1 0.00 0.00 0.00 37 1004.3
20210517234050 74 194 2.6 6.1 0.00 0.00 0.00 43 1004.3
20210517233554 75 179 1.7 4.3 0.00 0.00 0.00 40 1004.3
20210517233116 74 184 2.6 5.2 0.00 0.00 0.00 34 1004.4
20210517232539 74 217 2.6 5.2 0.00 0.00 0.00 42 1004.4
20210517232036 74 226 2.6 8.7 0.00 0.00 0.00 44 1004.4
20210517231602 74 191 4.3 8.7 0.00 0.00 0.00 40 1004.5
20210517231035 74 219 3.5 5.2 0.00 0.00 0.00 39 1004.5
20210517230535 74 271 3.5 6.1 0.00 0.00 0.00 37 1004.5
20210517230139 74 258 2.6 5.2 0.00 0.00 0.00 32 1004.6
20210517225539 74 231 1.7 7.0 0.00 0.00 0.00 41 1004.6
20210517225036 75 251 2.6 8.7 0.00 0.00 0.00 43 1004.8
20210517224559 74 162 4.3 12.2 0.00 0.00 0.00 31 1004.8
20210517224030 74 219 2.6 12.2 0.00 0.00 0.00 39 1004.9
20210517223530 74 127 2.6 7.8 0.00 0.00 0.00 37 1005.0
20210517223112 74 166 3.5 7.8 0.00 0.00 0.00 40 1005.0
20210517222530 74 187 1.7 8.7 0.00 0.00 0.00 42 1005.1
20210517222029 74 207 5.2 8.7 0.00 0.00 0.00 41 1005.1
20210517221543 74 198 4.3 7.0 0.00 0.00 0.00 39 1005.1
20210517221034 74 258 4.3 7.0 0.00 0.00 0.00 40 1005.2
20210517220554 74 176 2.6 9.6 0.00 0.00 0.00 40 1005.3
20210517220055 74 191 5.2 7.8 0.00 0.00 0.00 40 1005.4
20210517215526 74 264 1.7 4.3 0.00 0.00 0.00 43 1005.6
20210517215109 74 290 0.9 7.0 0.00 0.00 0.00 46 1005.6
20210517214534 74 355 4.3 8.7 0.00 0.00 0.00 35 1005.7
20210517214023 73 300 1.7 15.6 0.00 0.00 0.00 41 1005.7
20210517213534 73 279 4.3 15.6 0.00 0.00 0.00 44 1005.9
20210517213024 73 237 1.7 6.1 0.00 0.00 0.00 37 1006.0
20210517212534 74 195 2.6 6.1 0.00 0.00 0.00 43 1006.0
20210517212020 74 188 0.9 7.0 0.00 0.00 0.00 40 1006.1
20210517211519 73 198 2.6 7.0 0.00 0.00 0.00 41 1006.2
20210517211018 73 233 2.6 7.8 0.00 0.00 0.00 36 1006.3
20210517210522 73 184 4.3 9.6 0.00 0.00 0.00 44 1006.3
20210517210045 73 241 3.5 9.6 0.00 0.00 0.00 43 1006.3
20210517205522 73 204 3.5 7.0 0.00 0.00 0.00 46 1006.4
20210517205015 72 222 1.7 7.8 0.00 0.00 0.00 37 1006.5
20210517204533 72 259 1.7 7.8 0.00 0.00 0.00 43 1006.5